This demonstration page uses our WeatherBlox Daily Observations layout. Learn more.

Hourly Observations for December 19, 2017

Temp ( °F °C ) Dew Point ( °F °C ) Humidity (%) Winds ( mph kmh ) Pressure ( in mb ) Visibility ( mi km ) Precip ( " mm )
12:15 am 00:15 Clear 38 3.2 26 -3.1 64 64 W 6 9 29.97 1015 10 16.09344 0 0
12:35 am 00:35 Clear 38 3.4 26 -3.4 61 61 W 7 11 29.97 1015 10 16.09344 0 0
12:55 am 00:55 Clear 38 3.1 26 -3.6 62 62 W 8 13 29.97 1015 10 16.09344 0 0
1:15 am 01:15 Clear 37 2.8 25 -3.8 62 62 WSW 5 7 30 1016 10 16.09344 0 0
1:35 am 01:35 Clear 37 2.6 25 -4 62 62 W 8 13 30 1016 10 16.09344 0 0
1:55 am 01:55 Clear 39 4 25 -3.7 58 58 W 8 13 30 1016 10 16.09344 0 0
2:15 am 02:15 Clear 37 2.9 24 -4.2 60 60 W 7 11 30 1016 10 16.09344 0 0
2:35 am 02:35 Clear 35 1.4 24 -4.5 65 65 WNW 3 6 30.03 1017 10 16.09344 0 0
2:55 am 02:55 Clear 32 0.2 23 -4.8 69 69 WNW 6 9 30.03 1017 10 16.09344 0 0
3:15 am 03:15 Clear 33 0.4 24 -4.7 69 69 NW 5 7 30.03 1017 10 16.09344 0 0
3:35 am 03:35 Clear 33 0.7 24 -4.4 69 69 NW 8 13 30.03 1017 10 16.09344 0 0
3:55 am 03:55 Clear 32 -0.2 23 -5.1 70 70 NW 9 15 30.03 1017 10 16.09344 0 0
4:15 am 04:15 Clear 33 0.5 24 -4.5 69 69 WNW 9 15 30.06 1018 10 16.09344 0 0
4:35 am 04:35 Clear 33 0.7 24 -4.4 69 69 W 8 13 30.06 1018 10 16.09344 0 0
4:55 am 04:55 Clear 32 0 24 -4.6 71 71 WNW 9 15 30.06 1018 10 16.09344 0 0
5:15 am 05:15 Clear 30 -1.1 24 -4.7 77 77 NW 9 15 30.12 1020 10 16.09344 0 0
5:35 am 05:35 Clear 35 1.5 26 -3.5 70 70 NW 10 17 30.09 1019 10 16.09344 0 0
5:55 am 05:55 Clear 35 1.5 26 -3.5 70 70 NNW 10 17 30.09 1019 10 16.09344 0 0
6:15 am 06:15 Clear 36 2.3 27 -3 68 68 NNW 12 19 30.09 1019 10 16.09344 0 0
6:35 am 06:35 Clear 37 3 27 -2.7 67 67 N 12 19 30.06 1018 10 16.09344 0 0
6:55 am 06:55 Clear 36 2.3 27 -2.7 70 70 N 12 19 30.12 1020 10 16.09344 0 0
7:15 am 07:15 Clear 35 1.7 28 -2.5 74 74 N 6 9 30.12 1020 10 16.09344 0 0
7:35 am 07:35 Clear 34 1.3 28 -2.4 77 77 N 3 6 30.15 1021 10 16.09344 0 0
7:55 am 07:55 Clear 33 0.6 28 -2.5 80 80 NNW 8 13 30.15 1021 10 16.09344 0 0
8:15 am 08:15 Sunny 34 1.2 29 -1.4 83 83 N 10 17 30.15 1021 10 16.09344 0 0
8:35 am 08:35 Sunny 37 2.9 32 -0.2 80 80 N 13 20 30.18 1022 10 16.09344 0 0
8:55 am 08:55 Sunny 38 3.4 32 0 79 79 N 13 20 30.18 1022 10 16.09344 0 0
9:15 am 09:15 Sunny 38 3.6 32 -0.1 77 77 NNE 14 22 30.15 1021 10 16.09344 0 0
9:35 am 09:35 Sunny 39 3.7 32 -0.2 76 76 NNE 17 28 30.21 1023 10 16.09344 0 0
9:55 am 09:55 Sunny 39 4 31 -0.3 74 74 NNE 22 35 30.18 1022 10 16.09344 0 0
10:15 am 10:15 Sunny 40 4.3 31 -0.6 71 71 NNE 20 31 30.18 1022 10 16.09344 0 0
10:35 am 10:35 Sunny 40 4.5 30 -0.9 68 68 NNE 17 28 30.18 1022 10 16.09344 0 0
10:55 am 10:55 Sunny 41 5 31 -0.7 67 67 NNE 18 30 30.18 1022 10 16.09344 0 0
11:15 am 11:15 Sunny 42 5.3 30 -1 64 64 NNE 20 31 30.18 1022 10 16.09344 0 0
11:35 am 11:35 Sunny 43 5.9 29 -1.5 59 59 NE 18 30 30.18 1022 10 16.09344 0 0
11:55 am 11:55 Sunny 43 6.3 29 -1.7 57 57 NNE 16 26 30.18 1022 10 16.09344 0 0
12:15 pm 12:15 Sunny 44 6.7 28 -2.1 54 54 N 15 24 30.18 1022 10 16.09344 0 0
12:35 pm 12:35 Sunny 44 6.9 27 -2.8 50 50 NE 15 24 30.18 1022 10 16.09344 0 0
12:55 pm 12:55 Sunny 45 7 25 -3.7 47 47 NE 10 17 30.18 1022 10 16.09344 0 0
1:15 pm 13:15 Sunny 45 7.2 24 -4.5 44 44 NE 14 22 30.12 1020 10 16.09344 0 0
1:35 pm 13:35 Sunny 45 7.3 24 -4.6 43 43 NE 15 24 30.12 1020 10 16.09344 0 0
1:55 pm 13:55 Sunny 46 7.5 24 -4.5 43 43 NE 13 20 30.12 1020 10 16.09344 0 0
2:15 pm 14:15 Sunny 46 7.7 24 -4.5 42 42 NNE 13 20 30.12 1020 10 16.09344 0 0
2:35 pm 14:35 Sunny 46 7.8 23 -5 40 40 NE 13 20 30.12 1020 10 16.09344 0 0
2:55 pm 14:55 Sunny 46 7.7 23 -5 41 41 NE 13 20 30.12 1020 10 16.09344 0 0
3:15 pm 15:15 Sunny 46 7.5 23 -5 41 41 NE 10 17 30.09 1019 10 16.09344 0 0
3:35 pm 15:35 Sunny 45 7.4 23 -5 41 41 NE 14 22 30.09 1019 10 16.09344 0 0
3:55 pm 15:55 Sunny 45 7.1 22 -5.7 40 40 NE 13 20 30.09 1019 10 16.09344 0 0
4:15 pm 16:15 Sunny 44 6.7 21 -6.3 39 39 NE 13 20 30.09 1019 10 16.09344 0 0
4:35 pm 16:35 Sunny 43 6 20 -6.5 41 41 NE 9 15 30.12 1020 10 16.09344 0 0
4:55 pm 16:55 Sunny 40 4.7 19 -7 43 43 NE 7 11 30.15 1021 10 16.09344 0 0
5:15 pm 17:15 Clear 37 2.9 19 -7.3 47 47 ENE 7 11 30.18 1022 10 16.09344 0 0
5:35 pm 17:35 Clear 35 1.5 19 -7.2 53 53 ENE 6 9 30.18 1022 10 16.09344 0 0
5:55 pm 17:55 Clear 32 0.2 18 -7.8 55 55 ENE 8 13 30.21 1023 10 16.09344 0 0
6:15 pm 18:15 Clear 35 1.4 19 -7.5 52 52 E 9 15 30.18 1022 10 16.09344 0 0
6:35 pm 18:35 Clear 34 1.2 19 -7.5 53 53 E 9 15 30.18 1022 10 16.09344 0 0
6:55 pm 18:55 Clear 35 1.6 18 -7.6 51 51 E 9 15 30.18 1022 10 16.09344 0 0
7:15 pm 19:15 Clear 34 1 18 -7.9 52 52 E 10 17 30.18 1022 10 16.09344 0 0
7:35 pm 19:35 Clear 33 0.5 17 -8.1 53 53 E 9 15 30.18 1022 10 16.09344 0 0
7:55 pm 19:55 Clear 33 0.6 17 -8.2 52 52 E 8 13 30.18 1022 10 16.09344 0 0
8:15 pm 20:15 Clear 32 -0.2 17 -8.4 54 54 E 8 13 30.21 1023 10 16.09344 0 0
8:35 pm 20:35 Clear 28 -2 16 -9 59 59 E 9 15 30.21 1023 10 16.09344 0 0
8:55 pm 20:55 Clear 28 -2.1 16 -8.9 60 60 E 10 17 30.21 1023 10 16.09344 0 0
9:15 pm 21:15 Clear 29 -1.7 15 -9.4 56 56 E 10 17 30.21 1023 10 16.09344 0 0
9:35 pm 21:35 Clear 28 -2.1 16 -9 60 60 E 12 19 30.21 1023 10 16.09344 0 0
9:55 pm 21:55 Clear 30 -1.1 15 -9.2 55 55 E 8 13 30.21 1023 10 16.09344 0 0
10:15 pm 22:15 Clear 29 -1.9 15 -9.2 58 58 E 6 9 30.21 1023 10 16.09344 0 0
10:35 pm 22:35 Clear 26 -3.3 15 -9.6 62 62 E 8 13 30.24 1024 10 16.09344 0 0
10:55 pm 22:55 Clear 25 -3.7 15 -9.6 64 64 ESE 5 7 30.24 1024 10 16.09344 0 0
11:15 pm 23:15 Clear 26 -3.2 15 -9.5 62 62 ESE 3 6 30.24 1024 10 16.09344 0 0
11:35 pm 23:35 Clear 26 -3.5 15 -9.5 64 64 Calm 30.24 1024 10 16.09344 0 0
11:55 pm 23:55 Clear 25 -4.1 15 -9.5 66 66 Calm 30.21 1023 10 16.09344 0 0

Powered by AerisWeather